Simultaneous Nadir Overpasses (SNOs) Predictions

Prediction of SNOs between FY3D and TERRA Satellite Orbit:

Table of predicted SNOs for the next 14.0 days since TLE Epoch: 10/30/2021
Index Date (FY3D) Time (FY3D) Lat,Lon (FY3D) SZA (FY3D ) Date (TERRA) Time (TERRA) Lat,Lon (TERRA) SZA (TERRA ) Distance(km) Time Diff (sec)
1 11/01/2021 07:59:16 -70.44,-119.99 95.09 11/01/2021 08:00:10 -70.45,-120.01 95.07 1.45 54
2 11/01/2021 08:50:00 70.36, 47.46 84.85 11/01/2021 08:49:37 70.35, 47.48 84.84 0.92 23
3 11/01/2021 09:40:27 -69.50,-143.92 95.97 11/01/2021 09:39:19 -69.58,-145.96 95.95 79.95 68
4 11/04/2021 00:15:34 -70.49, -4.11 94.20 11/04/2021 00:16:36 -70.49, -4.09 94.20 1.06 62
5 11/04/2021 01:06:17 70.36, 163.41 85.69 11/04/2021 01:06:03 70.38, 163.40 85.71 2.46 14
6 11/04/2021 01:56:50 -69.82, -28.43 94.83 11/04/2021 01:55:40 -69.88, -29.67 94.80 48.21 70
7 11/06/2021 16:31:50 -70.49, 111.84 93.39 11/06/2021 16:33:01 -70.51, 111.82 93.37 1.99 71
8 11/06/2021 17:22:34 70.42, -80.73 86.55 11/06/2021 17:22:28 70.40, -80.70 86.53 2.40 6
9 11/06/2021 18:13:12 -70.13, 87.04 93.72 11/06/2021 18:12:00 -70.18, 86.62 93.69 16.94 72
10 11/09/2021 08:48:12 -70.75,-132.63 92.36 11/09/2021 08:49:24 -70.68,-132.05 92.42 23.03 72
11 11/09/2021 09:38:51 70.43, 35.21 87.34 11/09/2021 09:38:54 70.40, 35.19 87.31 2.56 3
12 11/09/2021 10:29:32 -70.29,-157.25 92.79 11/09/2021 10:28:24 -70.30,-157.33 92.79 3.17 68
13 11/12/2021 01:04:35 -71.07, -17.22 91.31 11/12/2021 01:05:44 -71.00, -15.68 91.34 56.17 69
14 11/12/2021 01:55:08 70.44, 151.15 88.09 11/12/2021 01:55:19 70.45, 151.14 88.10 1.87 11
15 11/12/2021 02:45:50 -70.35, -41.39 91.99 11/12/2021 02:44:49 -70.35, -41.38 92.00 0.41 61



Historial Predications of SNOs between FY3D and TERRA
